sat.trackr.live / text

‹ back to catalog

STARLINK-37500

NORAD 69453 · 2026-127L

PAYLOAD ACTIVE UNKNOWN

§ Identity

Operator
Country
US
Launch date
2026-06-08
Launch site
AFETR
Launch vehicle
Mass (kg)
RCS (m²)

Purposes: comms

External: N2YO · Heavens-Above · Gunter

§ Orbital elements

Epoch: 2026-09-20T00:42:13.407840Z

Period
93.85 min
Inclination
53.1585°
Eccentricity
0.0000804
Mean motion
15.34400291 rev/d
Perigee alt
462.2 km
Apogee alt
463.3 km
Semi-major
6,840.8 km
B*
5.0617e-4
RAAN
167.6423°
Arg perigee
89.4710°
Mean anomaly
270.6384°
Rev number
1,612

§ Raw data

STARLINK-375001 69453U 26127L   26263.02932185  .00016764  00000+0  50617-3 0  99992 69453  53.1585 167.6423 0000804  89.4710 270.6384 15.34400291 16125

JSON: /api/v1/satellites/69453 · /tle

For live sub-satellite position, see the globe view (requires WebGL).

§ Visibility from observer

Set your observer location to see the next 7 days of passes ≥ 10°. The values pass through the URL so the page stays shareable.

No JS? Fill the form by hand. The geolocation button needs JavaScript.